Flag for Israel Weather past 2 weeks in Tel Aviv, Israel

Now
100 °F

Sunny.


Feels Like: 99 °F
Forecast: 79 / 86 °F
Wind: 10 mph from West

Location: Ben Gurion International Airport

Current Time: Sep 17, 2014 at 4:50:29 PM

Latest Report: Sep 17, 2014 at 4:20 PM


Visibility: 10 mi

Pressure: 29.68 "Hg

Humidity: 22%

Dew point: 55 °F

Location of Tel AvivLocation

Historic Weather in Tel Aviv — Graph

°F

Tel Aviv temperature yesterday

Maximum temperature yesterday: 88 °F (at 2:20 PM)
Minimum temperature yesterday: 73 °F (at 4:20 AM)
Average temperature yesterday: 80 °F

Past Weeks' High & Low Weather Summary

 TemperatureHumidityPressure
High100 °F (Sep 17, 1:20 PM)83% (Sep 5, 3:20 AM)29.95 "Hg (Sep 5, 3:20 AM)
Low70 °F (Sep 17, 6:20 AM)20% (Sep 17, 10:50 AM)29.68 "Hg (Sep 17, 3:50 PM)
Average81 °F63%29.85 "Hg
* Reported Sep 2 3:20 PM — Sep 17 3:50 PM, Tel Aviv, Weather by CustomWeather, © 2014

Note: Actual official high and low records may vary slightly from our data, if they occured in-between our weather recording intervals... More about our weather records

Advertising

Tel Aviv weather history for previous 24 hours

 ConditionsComfort  
Time TempWeatherWind HumidityBarometerVisibility
3:50 PM
Sep 17
100 °FPassing clouds.13 mph22%29.68 "HgN/A
3:20 PM100 °FPassing clouds.13 mph24%29.71 "HgN/A
2:50 PM100 °FPassing clouds.10 mph25%29.71 "HgN/A
2:20 PM100 °FPassing clouds.10 mph24%29.71 "HgN/A
1:50 PM100 °FPassing clouds.8 mph24%29.71 "HgN/A
1:20 PM100 °FSunny.2 mph22%29.74 "Hg10 mi
12:50 PM99 °FSunny.3 mph22%29.74 "Hg10 mi
12:20 PM97 °FSunny.5 mph23%29.77 "Hg10 mi
11:50 AM97 °FSunny.2 mph22%29.77 "Hg10 mi
11:20 AM95 °FSunny.1 mph22%29.80 "Hg10 mi
10:50 AM95 °FSunny.No wind20%29.80 "Hg10 mi
10:20 AM91 °FSunny.1 mph23%29.80 "Hg10 mi
9:50 AM90 °FSunny.1 mph26%29.83 "Hg10 mi
9:20 AM86 °FSunny.1 mph29%29.83 "Hg10 mi
8:50 AM81 °FSunny.2 mph34%29.80 "Hg10 mi
8:20 AM79 °FSunny.1 mph45%29.80 "Hg10 mi
7:50 AM75 °FSunny.2 mph50%29.83 "Hg10 mi
7:20 AM72 °FClear.3 mph57%29.80 "Hg10 mi
6:50 AM70 °FClear.3 mph60%29.80 "Hg10 mi
6:20 AM70 °FClear.1 mph69%29.80 "Hg10 mi
5:50 AM72 °FClear.1 mph69%29.80 "Hg10 mi
5:20 AM72 °FClear.1 mph69%29.80 "Hg10 mi
4:50 AM73 °FClear.3 mph69%29.80 "Hg10 mi
4:20 AM73 °FClear.5 mph69%29.80 "Hg10 mi
3:50 AM75 °FClear.2 mph61%29.80 "Hg10 mi
3:20 AM73 °FClear.3 mph69%29.80 "Hg10 mi
2:50 AM73 °FClear.3 mph69%29.77 "Hg10 mi
2:20 AM75 °FClear.2 mph69%29.77 "Hg10 mi
1:20 AM75 °FClear.7 mph74%29.80 "Hg10 mi
12:50 AM75 °FClear.7 mph74%29.80 "Hg10 mi
12:20 AM75 °FClear.5 mph74%29.83 "Hg10 mi
11:50 PM
Sep 16
77 °FClear.6 mph74%29.83 "Hg10 mi
11:20 PM77 °FClear.5 mph74%29.83 "Hg10 mi
10:50 PM79 °FClear.5 mph70%29.86 "Hg10 mi
10:20 PM79 °FClear.5 mph70%29.86 "Hg10 mi
9:50 PM79 °FClear.6 mph70%29.86 "Hg10 mi
9:20 PM81 °FClear.5 mph66%29.86 "Hg10 mi
8:50 PM81 °FClear.3 mph66%29.86 "Hg10 mi
8:20 PM81 °FClear.5 mph66%29.86 "Hg10 mi
7:50 PM81 °FClear.6 mph66%29.86 "Hg10 mi
7:20 PM81 °FSunny.7 mph66%29.83 "Hg10 mi
6:50 PM82 °FSunny.7 mph62%29.83 "Hg10 mi
6:20 PM82 °FPassing clouds.8 mph62%29.83 "HgN/A
5:50 PM84 °FSunny.9 mph58%29.83 "Hg10 mi
5:20 PM84 °FPassing clouds.10 mph58%29.83 "HgN/A
4:50 PM84 °FPassing clouds.13 mph58%29.83 "HgN/A
4:20 PM84 °FPassing clouds.13 mph58%29.83 "HgN/A
Weather by CustomWeather, © 2014

See weather overviewHow to use our weather pages